Other Surface Observations
Issued by NWS

Home | Current Version | Previous Version | Text Only | Print | Product List | Glossary On
Versions: 1 2 3 4 5 6 7 8 9 10 11 12 13 14 15 16 17 18 19 20 21 22 23 24 25 26 27 28 29 30 31 32 33 34 35 36 37 38 39 40 41 42 43 44 45 46 47 48 49 50
000
SXUS52 KTAE 302005
OSOTAE
OSOTAE
North Florida/South Alabama/Southwest Georgia Weather Roundup
National Weather Service Tallahassee Florida
400 PM EDT SAT APR 30 2016

Note: "fair" indicates few or no clouds below 12,000 feet with no
significant weather and/or obstructions to visibility.

!FLZ017-115-028-034-025-302100
...North Florida...

CITY           SKY/WX    TMP DP  RH WIND       PRES   REMARKS
TALLAHASSEE    CLOUDY    90  65  43 SE9G18    29.91F HX  92
APALACHICOLA   MOSUNNY   81  71  71 S12       29.93F
PERRY          NOT AVBL
CROSS CITY       N/A     88  68  51 S10       29.94F HX  91
JACKSONVILLE   CLOUDY    85  64  49 SE16      29.95F
$$

!FLZ112-006-005-002-011-302100
...Florida Panhandle...

CITY           SKY/WX    TMP DP  RH WIND       PRES   REMARKS
MARIANNA       CLOUDY    87  66  49 SW9       29.90F
BONIFAY        NOT AVBL
PANAMA CITY NW FAIR      84  62  47 SE12      29.92S
TYNDALL AFB    CLOUDY    84  65  53 S16       29.92S
TYND DRONE APT FAIR      83  66  55 S14       29.92S
DE FUNIAK SPR    N/A     84  63  49 S13       29.92F
EGLIN AFB      PTSUNNY   81  66  61 SE13      29.92S
DESTIN         CLOUDY    80  71  74 SE12      29.92S
HURLBURT       CLOUDY    79  67  67 SE12      29.91F
CRESTVIEW      CLOUDY    84  64  50 S13G20    29.93S
PENSACOLA      CLOUDY    79  72  79 SE12      29.91S
$$

!ALZ063-066-302100
...South Alabama...

CITY           SKY/WX    TMP DP  RH WIND       PRES   REMARKS
DOTHAN         MOSUNNY   86  63  45 S12       29.95S
OZARK CAIRNS   CLOUDY    85  67  54 S8        29.91F
FT RUCKER HELI MOSUNNY   85  64  49 SW9       29.91S
RUCKER HELI 3  FAIR      84  64  50 S9        29.93S
RUCKER HELI 2  NOT AVBL
FLORALA APT    CLOUDY    84  63  49 S14       29.93S
ANDALUSIA      CLOUDY    87  65  47 SW7       29.92R HAZE
TROY           CLOUDY    86  66  51 S9        29.92S
EUFALA         FAIR      89  65  44 S9G17     29.90S HX  91
MOBILE         CLOUDY    79  73  82 SE12      29.89F
$$

!GAZ120>161-302100
...Southwest and South Central Georgia...

CITY           SKY/WX    TMP DP  RH WIND       PRES   REMARKS
THOMASVILLE    FAIR      88  68  51 S10       29.94S HX  91
BAINBRIDGE     CLOUDY    90  64  43 S9G16     29.91F HX  91
MOODY AFB      CLOUDY    85  70  59 N3        29.91F HX  90
VALDOSTA       CLOUDY    88  68  51 S7        29.91F HX  91
MOULTRIE       CLOUDY    88  64  45 S7        29.93F
BLAKELY        CLOUDY    90  68  48 CALM      29.91F HX  93
ALBANY         CLOUDY    89  63  41 SW15      29.92F HX  90
TIFTON         FAIR      88  67  50 S8        29.91F HX  91
FITZGERALD     FAIR      84  72  65 S7        29.94F HX  90
CORDELE        FAIR      88  69  52 W3        29.91F HX  92
AMERICUS       FAIR      84  64  51 SE6       29.92F
HOMERVILLE     CLOUDY    88  68  51 SE5       29.92F HX  91
$$

!GMZ750-755-770-775-302100
...Coastal and Buoy Obs...

STATION/POSITION TIME  TEMP    WIND        PRES    VSBY  WAVE
                       AIR SEA DIR/SP/G                  HT/PER
                 (UTC) (F)     (DEG/KT/KT) (MB)    (MI)  (FT/S)
KEATON BEACH     2000   79     180/ 12/ 13 1013.6F
CEDAR KEY        1900   80     220/  6/  8 1015.0F
C TOWER          2000   76     150/ 11/ 12 1014.0F
APALACHICOLA BUO 1950   77 76  160/ 12/ 14 1013.2F         3/ 6
PANAMA CITY BUOY 1850   79 78  150/ 14/ 17 1012.9          4/ 6
MOBILE BUOY      1900   76 74  140/ 14/ 17 1011.1R
ORANGE BCH AL BU 1950   76 74  130/  8/ 10 1011.3S         4/ 6
$$




USA.gov is the U.S. government's official web portal to all federal, state and local government web resources and services.